Meeker, CO

6:25 AM MDT on August 20, 2017 (GMT -0600)
Meeker

Weather History for KEEO - April, 2013

Change the Weather History Date:

Thursday, April 18, 2013

  Actual Average Record
Temperature  
Mean Temperature 14 °F 43 °F  
Max Temperature 30 °F 58 °F 75 °F (2001)
Min Temperature -2 °F 28 °F -2 °F (2013)
Degree Days  
Heating Degree Days 51 22  
Month to date heating degree days 511 433  
Since 1 July heating degree days 7473 7165  
Cooling Degree Days 0 0  
Month to date cooling degree days 0 0  
Year to date cooling degree days 0 0  
Moisture  
Dew Point 8 °F    
Average Humidity 72    
Maximum Humidity 96    
Minimum Humidity 47    
Precipitation  
Precipitation T in 0.06 in 0.68 in (2015)
Month to date precipitation 2.58 0.89  
Year to date precipitation 4.12 4.07  
Sea Level Pressure  
Sea Level Pressure 30.33 in    
Wind  
Wind Speed 2 mph (SE)    
Max Wind Speed 13 mph    
Max Gust Speed 16 mph    
Visibility 9 miles    
Events Snow    
T = Trace of Precipitation, MM = Missing Value Source: NWS Daily Summary

Daily Weather History Graph

Daily Weather History Graph

Search for Another Location

Airport or City:

Trip Planner

Search our weather history database for the weather conditions in past years. The results will help you decide how hot, cold, wet, or windy it might be!

Date:

Astronomy

Apr. 18, 2013 Rise Set
Actual Time 6:28 AM MDT 7:53 PM MDT
Civil Twilight 6:00 AM MDT 8:21 PM MDT
Nautical Twilight 5:26 AM MDT 8:55 PM MDT
Astronomical Twilight 4:50 AM MDT 9:31 PM MDT
Moon 12:43 PM MDT (4/18) 2:09 AM MDT (4/18)
Length of Visible Light 14h 21m
Length of Day
13h 24m
First Quarter, 52% of the Moon is Illuminated
Apr 18
First Quarter
Apr 25
Full
May 2
Last Quarter
May 9
New
May 17
First Quarter

Hourly Weather History & Observations

Time (MDT) Temp. Windchill Dew Point Humidity Pressure Visibility Wind Dir Wind Speed Gust Speed Precip Events Conditions
12:53 AM 10.0 °F - 6.1 °F 84% 30.26 in 10.0 mi Calm Calm - N/A   Mostly Cloudy
1:53 AM 10.0 °F - 7.0 °F 87% 30.26 in 10.0 mi Calm Calm - N/A   Overcast
2:53 AM 6.1 °F - 3.0 °F 87% 30.28 in 10.0 mi Calm Calm - N/A   Overcast
3:53 AM 6.1 °F - 1.0 °F 80% 30.29 in 10.0 mi Calm Calm - N/A   Clear
4:53 AM 3.0 °F - -0.9 °F 84% 30.31 in 10.0 mi Calm Calm - N/A   Clear
5:10 AM 3.2 °F - -0.4 °F 85% 30.11 in 8.0 mi Calm Calm - N/A   Mostly Cloudy
5:31 AM 3.2 °F - -2.2 °F 78% 30.11 in 10.0 mi Calm Calm - N/A   Scattered Clouds
5:53 AM -0.0 °F - -4.0 °F 83% 30.33 in 10.0 mi Calm Calm - N/A   Clear
6:53 AM 1.0 °F - -2.9 °F 83% 30.35 in 10.0 mi Calm Calm - N/A   Clear
7:53 AM 5.0 °F - 3.9 °F 95% 30.37 in 10.0 mi Calm Calm - N/A   Scattered Clouds
8:53 AM 7.0 °F - 3.0 °F 84% 30.39 in 10.0 mi Calm Calm - N/A   Mostly Cloudy
9:53 AM 12.9 °F - 7.0 °F 77% 30.38 in 10.0 mi Calm Calm - N/A   Overcast
10:11 AM 14.0 °F - 8.6 °F 79% 30.20 in 2.0 mi Calm Calm - 0.00 in Snow Light Snow
10:33 AM 17.6 °F - 10.4 °F 73% 30.20 in 5.0 mi Calm Calm - 0.00 in   Haze
10:48 AM 19.4 °F - 10.4 °F 68% 30.21 in 9.0 mi Calm Calm - 0.00 in   Overcast
10:53 AM 19.0 °F - 12.0 °F 74% 30.38 in 8.0 mi Calm Calm - 0.00 in   Overcast
11:53 AM 19.9 °F 13.4 °F 10.9 °F 68% 30.39 in 10.0 mi South 4.6 mph - N/A   Overcast
12:53 PM 23.0 °F 18.4 °F 12.0 °F 63% 30.38 in 10.0 mi SE 3.5 mph - N/A   Overcast
1:53 PM 25.0 °F - 12.9 °F 60% 30.37 in 9.0 mi Calm Calm - 0.00 in   Overcast
2:53 PM 27.0 °F 19.5 °F 14.0 °F 58% 30.38 in 10.0 mi East 6.9 mph - N/A   Overcast
3:53 PM 28.0 °F 19.3 °F 15.1 °F 58% 30.38 in 10.0 mi WSW 9.2 mph - N/A   Mostly Cloudy
4:53 PM 28.0 °F 20.0 °F 17.1 °F 63% 30.39 in 10.0 mi South 8.1 mph - N/A   Partly Cloudy
5:53 PM 30.0 °F 24.1 °F 12.9 °F 49% 30.42 in 10.0 mi SSW 5.8 mph - N/A   Scattered Clouds
6:53 PM 28.9 °F 23.9 °F 12.9 °F 51% 30.41 in 10.0 mi ESE 4.6 mph - N/A   Clear
7:53 PM 25.0 °F 20.7 °F 16.0 °F 69% 30.42 in 10.0 mi NNE 3.5 mph - N/A   Partly Cloudy
8:53 PM 23.0 °F - 16.0 °F 74% 30.44 in 10.0 mi Calm Calm - N/A   Overcast
9:53 PM 24.1 °F 19.7 °F 14.0 °F 65% 30.42 in 10.0 mi ENE 3.5 mph - N/A   Overcast
10:53 PM 24.1 °F - 14.0 °F 65% 30.40 in 10.0 mi Calm Calm - N/A   Overcast
11:53 PM 24.1 °F - 14.0 °F 65% 30.40 in 10.0 mi Calm Calm - N/A   Overcast